Location: Lafig�re
(44.4503°N, 4.0357°E)
Time: 00:33:56
(UTC+00:00)

deb Explorer IX - Pass Details

Date: 25 January 2021
Orbit: 537 x 1102 km, 38.8° (Epoch: 03 March)

Event Time Altitude Azimuth Distance (km) Brightness Sun altitude
Rises 19:27:53 0° 263° (W) 3,588 ? -29.2°
Reaches altitude 10° 19:30:46 10° 258° (WSW) 2,552 ? -29.7°
Enters shadow 19:35:40 43° 212° (SSW) 1,112 ? -30.6°
